This is the latest recevied weather packets stored in our database for station/object ON7AMI-5. If no packets are shown the sender has not sent any weather packets the latest 1 day(s).
| Time | Temp. | Humidity | Pressure | Rain* | Wind** | Luminosity | Snow |
|---|---|---|---|---|---|---|---|
| 1777960535 | 11.11° C | 98% | 1012.4 hPa | 0 mm | 5.81 m/s, 24° | - | - |
| 1777960235 | 11.11° C | 98% | 1012.4 hPa | 0 mm | 4.47 m/s, 12° | - | - |
| 1777959935 | 11.11° C | 98% | 1012.3 hPa | 0 mm | 2.68 m/s, 359° | - | - |
| 1777959636 | 11.11° C | 98% | 1012.3 hPa | 0 mm | 3.13 m/s, 348° | - | - |
| 1777959335 | 11.11° C | 98% | 1012.4 hPa | 0 mm | 4.92 m/s, 12° | - | - |
| 1777959035 | 11.11° C | 98% | 1012.4 hPa | 0 mm | 3.58 m/s, 359° | - | - |
| 1777958735 | 11.11° C | 98% | 1012.5 hPa | 0 mm | 3.58 m/s, 16° | - | - |
| 1777958436 | 11.11° C | 98% | 1012.5 hPa | 0 mm | 4.02 m/s, 26° | - | - |
| 1777958135 | 11.11° C | 98% | 1012.5 hPa | 0 mm | 3.58 m/s, 22° | - | - |
| 1777957835 | 11.11° C | 98% | 1012.5 hPa | 0 mm | 3.13 m/s, 1° | - | - |
| 1777957544 | 11.11° C | 98% | 1012.4 hPa | 0 mm | 4.92 m/s, 13° | - | - |
| 1777957235 | 11.11° C | 98% | 1012.4 hPa | 0 mm | 3.13 m/s, 16° | - | - |
| 1777956934 | 11.11° C | 98% | 1012.4 hPa | 0 mm | 1.79 m/s, 16° | - | - |
| 1777956638 | 11.11° C | 98% | 1012.4 hPa | 0 mm | 2.68 m/s, 12° | - | - |
| 1777956335 | 11.11° C | 98% | 1012.4 hPa | 0 mm | 2.68 m/s, 0° | - | - |
| 1777956035 | 11.11° C | 98% | 1012.5 hPa | 0 mm | 4.92 m/s, 22° | - | - |
| 1777955735 | 11.11° C | 98% | 1012.6 hPa | 0 mm | 4.02 m/s, 356° | - | - |
| 1777955435 | 11.11° C | 98% | 1012.6 hPa | 0 mm | 3.13 m/s, 16° | - | - |
| 1777955135 | 11.11° C | 98% | 1012.6 hPa | 0 mm | 3.58 m/s, 17° | - | - |
| 1777954834 | 11.11° C | 98% | 1012.7 hPa | 0 mm | 4.92 m/s, 12° | - | - |
| 1777954535 | 11.67° C | 98% | 1012.7 hPa | 0 mm | 4.47 m/s, 2° | - | - |
| 1777954233 | 11.67° C | 98% | 1012.7 hPa | 0 mm | 2.24 m/s, 2° | - | - |
| 1777953933 | 11.67° C | 98% | 1012.7 hPa | 0 mm | 2.24 m/s, 9° | - | - |
| 1777953633 | 11.67° C | 98% | 1012.7 hPa | 0 mm | 2.68 m/s, 8° | - | - |
| 1777953327 | 11.67° C | 98% | 1012.7 hPa | 0 mm | 2.24 m/s, 353° | - | - |
* Rain latest hour (hover to see other rain measurements)
** Current wind speed in m/s (hover to see current wind gust speed)